Regional Weather Roundup
Issued by NWS Green Bay, WI

Home | Current Version | Previous Version | Graphics & Text | Print | Product List | Glossary Off
Versions: 1 2 3 4 5 6 7 8 9 10 11 12 13 14 15 16 17 18 19 20 21 22 23 24 25 26 27 28 29 30 31 32 33 34 35 36 37 38 39 40 41 42 43 44 45 46 47 48 49 50

000
ASUS43 KGRB 201600
RWRGRB

NORTH-CENTRAL AND NORTHEAST WISCONSIN REGIONAL WEATHER ROUNDUP
NATIONAL WEATHER SERVICE GREEN BAY WI
1000 AM CST MON FEB 20 2017

WIZ005-009-010>012-018-019-201700-
NORTH CENTRAL WISCONSIN

CITY           SKY/WX    TMP DP  RH WIND       PRES   REMARKS
IRONWOOD       CLOUDY    47  34  60 SE16G24   29.93F
MANITOWISH WTR NOT AVBL
ARBOR VITAE    NOT AVBL
EAGLE RIVER    NOT AVBL
LAND O LAKES   CLOUDY    43  32  64 SE9G17    30.03F
RHINELANDER    CLOUDY    42  33  70 SE9       30.02F
PHILLIPS       CLOUDY    43  36  75 SE13G18   29.96S
ANTIGO         NOT AVBL
TOMAHAWK       NOT AVBL
MERRILL        NOT AVBL
$$

WIZ013-073-201700-
NORTHEAST WISCONSIN

CITY           SKY/WX    TMP DP  RH WIND       PRES   REMARKS
IRON MOUNTAIN  CLOUDY    39  29  67 SE8       30.10F
MARINETTE      CLOUDY    40  33  76 E6        30.15F
OCONTO         CLOUDY    42  33  71 E7        30.13S
$$

WIZ017-030-035>037-045-201700-
CENTRAL WISCONSIN

CITY           SKY/WX    TMP DP  RH WIND       PRES   REMARKS
MEDFORD        NOT AVBL
WAUSAU         CLOUDY    41  33  73 E12       30.00F
MOSINEE        CLOUDY    43  36  75 SE12G18   30.01F
MARSHFIELD     CLOUDY    43  36  76 SE13      29.97F
WISC RAPIDS    PTSUNNY   49  42  77 SE10      30.01S
STEVENS POINT  NOT AVBL
WAUPACA        CLOUDY    50  38  64 E6        30.05F
SHAWANO        CLOUDY    40  34  77 NE6       30.10S
CLINTONVILLE   MOSUNNY   45  32  61 E8        30.08S
WAUTOMA        NOT AVBL
$$

WIZ038-039-048-051-201700-
FOX VALLEY

CITY           SKY/WX    TMP DP  RH WIND       PRES   REMARKS
NWS GREEN BAY  CLOUDY    46  36  68 SE13      30.11S
APPLETON       PTSUNNY   45  32  61 E10       30.06F
OSHKOSH        CLOUDY    50  43  77 SE12      30.04F
FOND DU LAC    CLOUDY    53  43  68 SE20      30.05F
$$

WIZ022-050-052-201700-
EAST CENTRAL WISCONSIN

CITY           SKY/WX    TMP DP  RH WIND       PRES   REMARKS
EPHRAIM        NOT AVBL
WASHINGTON ISL NOT AVBL
STURGEON BAY   MOSUNNY   42  34  73 SE12      30.14F
MANITOWOC      NOT AVBL
SHEBOYGAN      CLOUDY    44  33  65 SE8       30.13S
$$

LMZ563-521-522-541>543-201700-
LAKESHORE

STATION/POSITION TIME  TEMP    WIND        PRES    VSBY  WAVE
                       AIR SEA DIR/SP/G                  HT/PER
                 (UTC) (F)     (DEG/KT/KT) (MB)    (MI)  (FT/S)
SHEBOYGAN LKSHOR 1500   39     170/ 10/ 10 1021.0F
KEWAUNEE LKSHORE 1530   40     150/  6/  7 1020.3F
ALGOMA MARINA    1455             CALM       N/A
NORTHPORT PIER   1540   36     140/  9/ 10 1021.7F
CHAMBERS ISLAND  1540   44     110/  7/ 10 1020.7F
MENOMINEE LKSHOR 1530   35      40/  5/  7 1020.1F
$$




USA.gov is the U.S. government's official web portal to all federal, state and local government web resources and services.